Weather History for Cordova, AK

Change the Weather History Date:

Tuesday, September 24, 2013

  Actual Average Record
Temperature  
Mean Temperature 48 °F -  
Max Temperature 55 °F 53 °F 65 °F (1971)
Min Temperature 41 °F 39 °F 20 °F (1956)
Degree Days  
Heating Degree Days 18    
Moisture  
Dew Point 43 °F    
Average Humidity 81    
Maximum Humidity 93    
Minimum Humidity 71    
Precipitation  
Precipitation 0.04 in - - ()
Sea Level Pressure  
Sea Level Pressure 29.92 in    
Wind  
Wind Speed 1 mph (East)    
Max Wind Speed 9 mph    
Max Gust Speed -    
Visibility 10 miles    
Events Rain    
Averages and records for this station are not official NWS values.
T = Trace of Precipitation, MM = Missing Value Source: NWS Daily Summary

Daily Weather History Graph

Daily Weather History Graph

Search for Another Location

Airport:

Trip Planner

Search our weather history database for the weather conditions in past years. The results will help you decide how hot, cold, wet, or windy it might be!

Date:

Astronomy

Sep. 24, 2013 Rise Set
Actual Time 7:31 AM AKDT 7:34 PM AKDT
Civil Twilight 6:49 AM AKDT 8:16 PM AKDT
Nautical Twilight 5:59 AM AKDT 9:06 PM AKDT
Astronomical Twilight 5:04 AM AKDT 10:00 PM AKDT
Moon 9:33 PM AKDT (9/24) 2:19 PM AKDT (9/24)
Length of Visible Light 13h 26m
Length of Day
12h 02m
Waning Gibbous, 72% of the Moon is Illuminated
Sep 24
Waning Gibbous
Sep 26
Last Quarter
Oct 4
New
Oct 11
First Quarter
Oct 18
Full

Hourly Weather History & Observations

Time (AKDT) Temp. Windchill Dew Point Humidity Pressure Visibility Wind Dir Wind Speed Gust Speed Precip Events Conditions
12:53 AM 41.0 °F - 37.9 °F 89% 29.65 in 10.0 mi Calm Calm - N/A   Mostly Cloudy
1:53 AM 41.0 °F - 39.0 °F 93% 29.69 in 10.0 mi Calm Calm - N/A   Overcast
2:53 AM 42.1 °F - 39.9 °F 92% 29.71 in 10.0 mi Calm Calm - N/A   Overcast
3:53 AM 43.0 °F - 39.9 °F 89% 29.73 in 10.0 mi Calm Calm - N/A   Overcast
4:53 AM 43.0 °F - 41.0 °F 93% 29.76 in 10.0 mi Calm Calm - 0.00 in Rain Light Rain
5:53 AM 46.0 °F 43.1 °F 37.0 °F 71% 29.78 in 10.0 mi NE 5.8 mph - 0.00 in Rain Light Rain
6:53 AM 45.0 °F - 39.9 °F 82% 29.81 in 10.0 mi Calm Calm - 0.00 in Rain Light Rain
7:53 AM 44.1 °F - 41.0 °F 89% 29.83 in 10.0 mi Calm Calm - 0.00 in   Overcast
8:53 AM 44.1 °F - 42.1 °F 93% 29.87 in 10.0 mi Calm Calm - 0.01 in Rain Light Rain
9:53 AM 46.0 °F 44.8 °F 42.1 °F 86% 29.89 in 10.0 mi NE 3.5 mph - 0.03 in Rain Light Rain
10:53 AM 48.0 °F - 45.0 °F 89% 29.91 in 10.0 mi Calm Calm - 0.00 in   Overcast
11:53 AM 51.1 °F - 44.1 °F 77% 29.94 in 10.0 mi Calm Calm - N/A   Overcast
12:53 PM 52.0 °F - 45.0 °F 77% 29.96 in 10.0 mi Calm Calm - N/A   Overcast
1:53 PM 54.0 °F - 46.0 °F 75% 29.98 in 10.0 mi SE 4.6 mph - 0.00 in   Overcast
2:53 PM 54.0 °F - 46.0 °F 75% 30.00 in 10.0 mi Calm Calm - N/A   Overcast
3:53 PM 54.0 °F - 46.0 °F 75% 30.01 in 10.0 mi Calm Calm - N/A   Overcast
4:53 PM 53.1 °F - 45.0 °F 74% 30.03 in 10.0 mi Calm Calm - N/A   Overcast
5:53 PM 52.0 °F - 44.1 °F 74% 30.02 in 10.0 mi ENE 5.8 mph - N/A   Overcast
6:53 PM 51.1 °F - 44.1 °F 77% 30.03 in 10.0 mi Calm Calm - N/A   Overcast
7:53 PM 51.1 °F - 45.0 °F 80% 30.04 in 10.0 mi ESE 3.5 mph - N/A   Overcast
8:43 PM 50.0 °F - 44.6 °F 82% 30.05 in 10.0 mi Calm Calm - 0.00 in   Overcast
8:53 PM 50.0 °F - 44.1 °F 80% 30.05 in 10.0 mi ENE 4.6 mph - 0.00 in   Overcast
9:53 PM 51.1 °F - 44.1 °F 77% 30.06 in 10.0 mi Calm Calm - N/A   Overcast
10:53 PM 52.0 °F - 44.1 °F 74% 30.04 in 10.0 mi East 4.6 mph - N/A   Overcast
11:53 PM 52.0 °F - 44.1 °F 74% 30.04 in 10.0 mi ESE 9.2 mph - N/A   Overcast